This is the latest recevied weather packets stored in our database for station/object N5YHM-13. If no packets are shown the sender has not sent any weather packets the latest 10 day(s).
| Time | Temp. | Humidity | Pressure | Rain* | Wind** | Luminosity | Snow |
|---|---|---|---|---|---|---|---|
| 1787966414 | 27.22° C | 94% | 1016.6 hPa | 0 mm | - | 0 W/m² | - |
| 1787966108 | 27.78° C | 94% | 1016.6 hPa | 0 mm | - | 0 W/m² | - |
| 1787965808 | 27.78° C | 93% | 1016.8 hPa | 0 mm | - | 0 W/m² | - |
| 1787965502 | 27.78° C | 93% | 1016.8 hPa | 0 mm | - | 0 W/m² | - |
| 1787965202 | 27.78° C | 92% | 1016.8 hPa | 0 mm | - | 0 W/m² | - |
| 1787964896 | 28.33° C | 92% | 1016.7 hPa | 0 mm | - | 0 W/m² | - |
| 1787964591 | 28.33° C | 91% | 1016.7 hPa | 0 mm | - | 0 W/m² | - |
| 1787964286 | 28.33° C | 91% | 1016.3 hPa | 0 mm | - | 0 W/m² | - |
| 1787963986 | 28.33° C | 91% | 1016.5 hPa | 0 mm | - | 0 W/m² | - |
| 1787963681 | 28.33° C | 90% | 1016.5 hPa | 0 mm | - | 0 W/m² | - |
| 1787963380 | 28.33° C | 90% | 1016.6 hPa | 0 mm | - | 0 W/m² | - |
| 1787963076 | 28.89° C | 89% | 1016.2 hPa | 0 mm | - | 0 W/m² | - |
| 1787962775 | 28.89° C | 88% | 1016.4 hPa | 0 mm | - | 1 W/m² | - |
| 1787962474 | 28.89° C | 89% | 1016.3 hPa | 0 mm | - | 1 W/m² | - |
| 1787962173 | 28.89° C | 88% | 1016.3 hPa | 0 mm | - | 1 W/m² | - |
| 1787961868 | 29.44° C | 87% | 1016.2 hPa | 0 mm | - | 2 W/m² | - |
| 1787961566 | 29.44° C | 85% | 1016.3 hPa | 0 mm | - | 2 W/m² | - |
| 1787961261 | 29.44° C | 85% | 1016.2 hPa | 0 mm | - | 2 W/m² | - |
| 1787960961 | 29.44° C | 84% | 1016.2 hPa | 0 mm | - | 3 W/m² | - |
| 1787960656 | 30° C | 84% | 1016.2 hPa | 0 mm | - | 3 W/m² | - |
| 1787960354 | 30° C | 83% | 1016.3 hPa | 0 mm | - | 3 W/m² | - |
| 1787960049 | 30.56° C | 82% | 1016.4 hPa | 0 mm | - | 3 W/m² | - |
| 1787959744 | 30.56° C | 78% | 1016.3 hPa | 0 mm | - | 3 W/m² | - |
| 1787959439 | 30.56° C | 75% | 1016.4 hPa | 0 mm | - | 4 W/m² | - |
| 1787959134 | 30.56° C | 76% | 1016.1 hPa | 0 mm | - | 5 W/m² | - |
* Rain latest hour (hover to see other rain measurements)
** Current wind speed in m/s (hover to see current wind gust speed)